Flag for U.S.A. Weather past 2 weeks in Ontario, Oregon, U.S.A.

Now
56 °F

Sunny.


Feels Like: 51 °F
Forecast: 43 / 64 °F
Wind: 20 mph from Northwest

Location: Ontario Municipal Airport

Current Time: Mar 28, 2015 at 12:10:18 PM

Latest Report: Mar 28, 2015 at 10:53 AM


Visibility: 10 mi

Pressure: 30.29 "Hg

Humidity: 40%

Dew point: 32 °F

Location of OntarioLocation

Historic Weather in Ontario — Graph

°F

Ontario temperature yesterday

Maximum temperature yesterday: 73 °F (at 5:53 PM)
Minimum temperature yesterday: 36 °F (at 7:53 AM)
Average temperature yesterday: 54 °F

Past Weeks' High & Low Weather Summary

 TemperatureHumidityPressure
High73 °F (Mar 27, 5:53 PM)93% (Mar 15, 4:53 AM)30.49 "Hg (Mar 15, 4:53 AM)
Low30 °F (Mar 19, 7:53 AM)23% (Mar 22, 4:53 PM)29.87 "Hg (Mar 15, 6:53 PM)
Average51 °F63%30.15 "Hg
* Reported Mar 13 10:53 AM — Mar 28 10:53 AM, Ontario, Weather by CustomWeather, © 2015

Note: Actual official high and low records may vary slightly from our data, if they occured in-between our weather recording intervals... More about our weather records

Advertising

Ontario weather history for previous 24 hours

 ConditionsComfort  
Time TempWeatherWind HumidityBarometerVisibility
10:53 AM
Sat, Mar 28
56 °FSunny.20 mph40%30.29 "Hg10 mi
9:53 AM54 °FSunny.21 mph45%30.25 "Hg10 mi
8:53 AM51 °FClear.15 mph52%30.23 "Hg10 mi
7:53 AM49 °FMostly cloudy.8 mph71%30.18 "Hg10 mi
6:53 AM51 °FLight rain. Overcast.31 mph63%30.10 "Hg10 mi
5:53 AM54 °FPassing clouds.8 mph72%30.00 "Hg10 mi
4:53 AM48 °FClear.5 mph86%29.97 "Hg10 mi
3:53 AM49 °FClear.No wind86%29.93 "Hg10 mi
2:53 AM51 °FClear.5 mph83%29.94 "Hg10 mi
1:53 AM49 °FClear.6 mph84%29.93 "Hg10 mi
12:53 AM52 °FClear.9 mph80%29.93 "Hg10 mi
11:53 PM
Fri, Mar 27
55 °FClear.10 mph74%29.93 "Hg10 mi
10:53 PM58 °FPassing clouds.7 mph70%29.94 "Hg10 mi
9:53 PM61 °FScattered clouds.3 mph60%29.95 "Hg10 mi
8:53 PM62 °FScattered clouds.5 mph58%29.96 "Hg10 mi
7:53 PM69 °FSunny.5 mph47%29.97 "Hg10 mi
6:53 PM73 °FSunny.No wind38%29.99 "Hg10 mi
5:53 PM73 °FSunny.5 mph37%30.03 "Hg10 mi
4:53 PM72 °FSunny.6 mph40%30.05 "Hg10 mi
3:53 PM70 °FSunny.3 mph42%30.09 "Hg10 mi
2:53 PM67 °FSunny.No wind45%30.14 "Hg10 mi
1:53 PM65 °FSunny.3 mph49%30.19 "Hg10 mi
12:53 PM60 °FSunny.No wind56%30.22 "Hg10 mi
Weather by CustomWeather, © 2015

See weather overviewHow to use our weather pages